Voltar ao catálogo

THOR AGENA B R/B

AtivoSSO
NORAD 2174·ROCKET BODY·🇺🇸 United States

Lançado May 15, 1966 de Vandenberg Space Force Base

Loading…

Próximas Passagens (próximas 24 horas)

TLE

AtualizadoSource: Space-Track

Época: Sep 14, 2026, 05:41 UTC

1 02174U 66040B   26257.23709400 -.00000001  00000-0  86967-4 0  9999
2 02174 100.3243 184.8065 0055828 190.1105 340.1042 13.36313920941117

Acompanhe THOR AGENA B R/B em tempo real com AllMySat

Download on the App Store